Tracking 25648 objects as of 17-May-2022
HD Live streaming from Space Station
objects crossing your sky now

COSMOS 2251 DEB

Track COSMOS 2251 DEB now!
10-day predictions


NORAD ID: 34924
Int'l Code: 1993-036ADV
Perigee: 692.5 km
Apogee: 792.5 km
Inclination: 74.0 °
Period: 99.5 minutes
Semi major axis: 7113 km
RCS: 0.0155 m2 (small)
Launch date: June 16, 1993
Source: Commonwealth of Independent States (former USSR) (CIS)
Launch site: PLESETSK MISSILE AND SPACE COMPLEX (PKMTR)

Note: This is SATELLITE DEBRIS
aabbcc
Your satellite tracking list
Your tracking list is empty




NASA's NSSDC Master Catalog

Two Line Element Set (TLE):
1 34924U 93036ADV 22136.44119325  .00002125  00000-0  57351-3 0  9990
2 34924  74.0468  30.6734 0070293  83.9380  90.5042 14.47026290687598
Source of the keplerian elements: AFSPC